Terminal Aerodrome Forecast
Issued by NWS

Home | Current Version | Previous Version | Text Only | Print | Product List | Glossary On
Versions: 1 2 3 4 5 6 7 8 9 10 11 12 13 14
000
FTUS45 KRIW 231100
TAFCPR
TAF
KCPR 231120Z 2312/2412 23018G28KT P6SM SCT080 BKN110
     FM231700 27018G30KT P6SM SCT070 BKN110
     FM240100 27013KT P6SM FEW070 SCT110
     FM240600 25010KT P6SM SKC=

USA.gov is the U.S. government's official web portal to all federal, state and local government web resources and services.